Time,TemperatureF,DewpointF,PressureIn,WindDirection,WindDirectionDegrees,WindSpeedMPH,WindSpeedGustMPH,Humidity,HourlyPrecipIn,Conditions,Clouds,dailyrainin,SoftwareType,DateUTC
2013-06-23 00:01:00,62.0,-99.9,-100.00,North,-999,-999.0,-999.0,-999,0.00,,,0.11,,2013-06-23 04:01:00,
2013-06-23 00:11:00,62.0,-99.9,-100.00,North,-999,-999.0,-999.0,-999,0.00,,,0.11,,2013-06-23 04:11:00,
2013-06-23 00:42:00,62.0,-99.9,-100.00,North,-999,-999.0,-999.0,-999,0.00,,,0.11,,2013-06-23 04:42:00,
2013-06-23 00:52:00,62.0,-99.9,-100.00,North,-999,-999.0,-999.0,-999,0.00,,,0.11,,2013-06-23 04:52:00,
2013-06-23 01:01:00,62.0,-99.9,-100.00,North,-999,-999.0,-999.0,-999,0.00,,,0.11,,2013-06-23 05:01:00,
2013-06-23 01:11:00,62.0,-99.9,-100.00,North,-999,-999.0,-999.0,-999,0.00,,,0.11,,2013-06-23 05:11:00,
2013-06-23 01:42:00,62.0,-99.9,-100.00,North,-999,-999.0,-999.0,-999,0.03,,,0.14,,2013-06-23 05:42:00,
2013-06-23 01:52:00,62.0,-99.9,-100.00,North,-999,-999.0,-999.0,-999,0.03,,,0.14,,2013-06-23 05:52:00,
2013-06-23 02:02:00,62.0,-99.9,-100.00,North,-999,-999.0,-999.0,-999,0.03,,,0.14,,2013-06-23 06:02:00,
2013-06-23 02:12:00,62.0,-99.9,-100.00,North,-999,-999.0,-999.0,-999,0.03,,,0.14,,2013-06-23 06:12:00,
2013-06-23 02:44:00,62.0,-99.9,-100.00,North,-999,-999.0,-999.0,-999,0.03,,,0.17,,2013-06-23 06:44:00,
2013-06-23 02:52:00,62.0,-99.9,-100.00,North,-999,-999.0,-999.0,-999,0.03,,,0.17,,2013-06-23 06:52:00,
2013-06-23 03:02:00,62.0,-99.9,-100.00,North,-999,-999.0,-999.0,-999,0.03,,,0.17,,2013-06-23 07:02:00,
2013-06-23 03:12:00,62.0,-99.9,-100.00,North,-999,-999.0,-999.0,-999,0.03,,,0.17,,2013-06-23 07:12:00,
2013-06-23 03:43:00,62.0,-99.9,-100.00,North,-999,-999.0,-999.0,-999,0.17,,,0.34,,2013-06-23 07:43:00,
2013-06-23 03:54:00,62.0,-99.9,-100.00,North,-999,-999.0,-999.0,-999,0.17,,,0.34,,2013-06-23 07:54:00,
2013-06-23 04:02:00,62.0,-99.9,-100.00,North,-999,-999.0,-999.0,-999,0.17,,,0.34,,2013-06-23 08:02:00,
2013-06-23 04:12:00,62.0,-99.9,-100.00,North,-999,-999.0,-999.0,-999,0.17,,,0.34,,2013-06-23 08:12:00,
2013-06-23 04:43:00,61.0,-99.9,-100.00,North,-999,-999.0,-999.0,-999,0.01,,,0.35,,2013-06-23 08:43:00,
2013-06-23 04:54:00,61.0,-99.9,-100.00,North,-999,-999.0,-999.0,-999,0.01,,,0.35,,2013-06-23 08:54:00,
2013-06-23 05:02:00,61.0,-99.9,-100.00,North,-999,-999.0,-999.0,-999,0.01,,,0.35,,2013-06-23 09:02:00,
2013-06-23 05:12:00,61.0,-99.9,-100.00,North,-999,-999.0,-999.0,-999,0.01,,,0.35,,2013-06-23 09:12:00,
2013-06-23 05:43:00,61.0,-99.9,-100.00,North,-999,-999.0,-999.0,-999,0.00,,,0.35,,2013-06-23 09:43:00,
2013-06-23 05:54:00,61.0,-99.9,-100.00,North,-999,-999.0,-999.0,-999,0.00,,,0.35,,2013-06-23 09:54:00,
2013-06-23 06:02:00,61.0,-99.9,-100.00,North,-999,-999.0,-999.0,-999,0.00,,,0.35,,2013-06-23 10:02:00,
2013-06-23 06:12:00,61.0,-99.9,-100.00,North,-999,-999.0,-999.0,-999,0.00,,,0.35,,2013-06-23 10:12:00,
2013-06-23 06:43:00,62.0,-99.9,-100.00,North,-999,-999.0,-999.0,-999,0.00,,,0.35,,2013-06-23 10:43:00,
2013-06-23 06:53:00,62.0,-99.9,-100.00,North,-999,-999.0,-999.0,-999,0.00,,,0.35,,2013-06-23 10:53:00,
2013-06-23 07:02:00,62.0,-99.9,-100.00,North,-999,-999.0,-999.0,-999,0.00,,,0.35,,2013-06-23 11:02:00,
2013-06-23 07:11:00,62.0,-99.9,-100.00,North,-999,-999.0,-999.0,-999,0.00,,,0.35,,2013-06-23 11:11:00,
2013-06-23 07:43:00,63.0,-99.9,-100.00,North,-999,-999.0,-999.0,-999,0.00,,,0.35,,2013-06-23 11:43:00,
2013-06-23 07:54:00,63.0,-99.9,-100.00,North,-999,-999.0,-999.0,-999,0.00,,,0.35,,2013-06-23 11:54:00,
2013-06-23 08:02:00,63.0,-99.9,-100.00,North,-999,-999.0,-999.0,-999,0.00,,,0.35,,2013-06-23 12:02:00,
2013-06-23 08:12:00,63.0,-99.9,-100.00,North,-999,-999.0,-999.0,-999,0.00,,,0.35,,2013-06-23 12:12:00,
2013-06-23 08:53:00,64.0,-99.9,-100.00,North,-999,-999.0,-999.0,-999,0.00,,,0.35,,2013-06-23 12:53:00,
2013-06-23 09:02:00,64.0,-99.9,-100.00,North,-999,-999.0,-999.0,-999,0.00,,,0.35,,2013-06-23 13:02:00,
2013-06-23 09:12:00,64.0,-99.9,-100.00,North,-999,-999.0,-999.0,-999,0.00,,,0.35,,2013-06-23 13:12:00,
2013-06-23 09:43:00,65.0,-99.9,-100.00,North,-999,-999.0,-999.0,-999,0.00,,,0.35,,2013-06-23 13:43:00,
2013-06-23 09:54:00,65.0,-99.9,-100.00,North,-999,-999.0,-999.0,-999,0.00,,,0.35,,2013-06-23 13:54:00,
2013-06-23 10:05:00,65.0,-99.9,-100.00,North,-999,-999.0,-999.0,-999,0.00,,,0.35,,2013-06-23 14:05:00,
2013-06-23 10:12:00,65.0,-99.9,-100.00,North,-999,-999.0,-999.0,-999,0.00,,,0.35,,2013-06-23 14:12:00,
2013-06-23 10:44:00,67.0,-99.9,-100.00,North,-999,-999.0,-999.0,-999,0.00,,,0.35,,2013-06-23 14:44:00,
2013-06-23 10:52:00,67.0,-99.9,-100.00,North,-999,-999.0,-999.0,-999,0.00,,,0.35,,2013-06-23 14:52:00,
2013-06-23 11:06:00,67.0,-99.9,-100.00,North,-999,-999.0,-999.0,-999,0.00,,,0.35,,2013-06-23 15:06:00,
2013-06-23 11:12:00,67.0,-99.9,-100.00,North,-999,-999.0,-999.0,-999,0.00,,,0.35,,2013-06-23 15:12:00,
2013-06-23 11:43:00,70.0,-99.9,-100.00,North,-999,-999.0,-999.0,-999,0.00,,,0.35,,2013-06-23 15:43:00,
2013-06-23 11:53:00,70.0,-99.9,-100.00,North,-999,-999.0,-999.0,-999,0.00,,,0.35,,2013-06-23 15:53:00,
2013-06-23 12:06:00,70.0,-99.9,-100.00,North,-999,-999.0,-999.0,-999,0.00,,,0.35,,2013-06-23 16:06:00,
2013-06-23 12:12:00,70.0,-99.9,-100.00,North,-999,-999.0,-999.0,-999,0.00,,,0.35,,2013-06-23 16:12:00,
2013-06-23 12:43:00,77.0,-99.9,-100.00,North,-999,-999.0,-999.0,-999,0.01,,,0.36,,2013-06-23 16:43:00,
2013-06-23 12:53:00,77.0,-99.9,-100.00,North,-999,-999.0,-999.0,-999,0.01,,,0.36,,2013-06-23 16:53:00,
2013-06-23 13:06:00,77.0,-99.9,-100.00,North,-999,-999.0,-999.0,-999,0.01,,,0.36,,2013-06-23 17:06:00,
2013-06-23 13:12:00,77.0,-99.9,-100.00,North,-999,-999.0,-999.0,-999,0.01,,,0.36,,2013-06-23 17:12:00,
2013-06-23 13:43:00,79.0,-99.9,-100.00,North,-999,-999.0,-999.0,-999,0.00,,,0.36,,2013-06-23 17:43:00,
2013-06-23 13:53:00,79.0,-99.9,-100.00,North,-999,-999.0,-999.0,-999,0.00,,,0.36,,2013-06-23 17:53:00,
2013-06-23 14:02:00,79.0,-99.9,-100.00,North,-999,-999.0,-999.0,-999,0.00,,,0.36,,2013-06-23 18:02:00,
2013-06-23 14:12:00,79.0,-99.9,-100.00,North,-999,-999.0,-999.0,-999,0.00,,,0.36,,2013-06-23 18:12:00,
2013-06-23 14:53:00,77.0,-99.9,-100.00,North,-999,-999.0,-999.0,-999,0.00,,,0.36,,2013-06-23 18:53:00,
2013-06-23 15:02:00,77.0,-99.9,-100.00,North,-999,-999.0,-999.0,-999,0.00,,,0.36,,2013-06-23 19:02:00,
2013-06-23 15:11:00,77.0,-99.9,-100.00,North,-999,-999.0,-999.0,-999,0.00,,,0.36,,2013-06-23 19:11:00,
2013-06-23 15:43:00,76.0,-99.9,-100.00,North,-999,-999.0,-999.0,-999,0.00,,,0.36,,2013-06-23 19:43:00,
2013-06-23 15:53:00,76.0,-99.9,-100.00,North,-999,-999.0,-999.0,-999,0.00,,,0.36,,2013-06-23 19:53:00,
2013-06-23 16:02:00,76.0,-99.9,-100.00,North,-999,-999.0,-999.0,-999,0.00,,,0.36,,2013-06-23 20:02:00,
2013-06-23 16:12:00,76.0,-99.9,-100.00,North,-999,-999.0,-999.0,-999,0.00,,,0.36,,2013-06-23 20:12:00,
2013-06-23 16:53:00,72.0,-99.9,-100.00,North,-999,-999.0,-999.0,-999,0.02,,,0.38,,2013-06-23 20:53:00,
2013-06-23 17:02:00,72.0,-99.9,-100.00,North,-999,-999.0,-999.0,-999,0.02,,,0.38,,2013-06-23 21:02:00,
2013-06-23 17:12:00,72.0,-99.9,-100.00,North,-999,-999.0,-999.0,-999,0.02,,,0.38,,2013-06-23 21:12:00,
2013-06-23 17:44:00,70.0,-99.9,-100.00,North,-999,-999.0,-999.0,-999,0.17,,,-99.99,,2013-06-23 21:44:00,
2013-06-23 17:52:00,70.0,-99.9,-100.00,North,-999,-999.0,-999.0,-999,0.17,,,-99.99,,2013-06-23 21:52:00,
2013-06-23 18:02:00,70.0,-99.9,-100.00,North,-999,-999.0,-999.0,-999,0.17,,,-99.99,,2013-06-23 22:02:00,
2013-06-23 18:12:00,70.0,-99.9,-100.00,North,-999,-999.0,-999.0,-999,0.17,,,-99.99,,2013-06-23 22:12:00,
2013-06-23 18:43:00,70.0,-99.9,-100.00,North,-999,-999.0,-999.0,-999,0.02,,,0.52,,2013-06-23 22:43:00,
2013-06-23 18:53:00,70.0,-99.9,-100.00,North,-999,-999.0,-999.0,-999,0.02,,,0.52,,2013-06-23 22:53:00,
2013-06-23 19:02:00,70.0,-99.9,-100.00,North,-999,-999.0,-999.0,-999,0.02,,,0.52,,2013-06-23 23:02:00,
2013-06-23 19:12:00,70.0,-99.9,-100.00,North,-999,-999.0,-999.0,-999,0.02,,,0.52,,2013-06-23 23:12:00,
2013-06-23 19:44:00,70.0,-99.9,-100.00,North,-999,-999.0,-999.0,-999,0.00,,,0.48,,2013-06-23 23:44:00,
2013-06-23 19:52:00,70.0,-99.9,-100.00,North,-999,-999.0,-999.0,-999,0.00,,,0.48,,2013-06-23 23:52:00,
2013-06-23 20:02:00,70.0,-99.9,-100.00,North,-999,-999.0,-999.0,-999,0.00,,,0.48,,2013-06-24 00:02:00,
2013-06-23 20:11:00,70.0,-99.9,-100.00,North,-999,-999.0,-999.0,-999,0.00,,,0.48,,2013-06-24 00:11:00,
2013-06-23 20:43:00,68.0,-99.9,-100.00,North,-999,-999.0,-999.0,-999,0.00,,,0.46,,2013-06-24 00:43:00,
2013-06-23 20:52:00,68.0,-99.9,-100.00,North,-999,-999.0,-999.0,-999,0.00,,,0.46,,2013-06-24 00:52:00,
2013-06-23 21:02:00,68.0,-99.9,-100.00,North,-999,-999.0,-999.0,-999,0.00,,,0.46,,2013-06-24 01:02:00,
2013-06-23 21:11:00,68.0,-99.9,-100.00,North,-999,-999.0,-999.0,-999,0.00,,,0.46,,2013-06-24 01:11:00,
2013-06-23 21:43:00,68.0,-99.9,-100.00,North,-999,-999.0,-999.0,-999,0.02,,,0.48,,2013-06-24 01:43:00,
2013-06-23 21:53:00,68.0,-99.9,-100.00,North,-999,-999.0,-999.0,-999,0.02,,,0.48,,2013-06-24 01:53:00,
2013-06-23 22:02:00,68.0,-99.9,-100.00,North,-999,-999.0,-999.0,-999,0.02,,,0.48,,2013-06-24 02:02:00,
2013-06-23 22:12:00,68.0,-99.9,-100.00,North,-999,-999.0,-999.0,-999,0.02,,,0.48,,2013-06-24 02:12:00,
2013-06-23 22:43:00,66.0,-99.9,-100.00,North,-999,-999.0,-999.0,-999,0.01,,,0.49,,2013-06-24 02:43:00,
2013-06-23 22:53:00,66.0,-99.9,-100.00,North,-999,-999.0,-999.0,-999,0.01,,,0.49,,2013-06-24 02:53:00,
2013-06-23 23:01:00,66.0,-99.9,-100.00,North,-999,-999.0,-999.0,-999,0.01,,,0.49,,2013-06-24 03:01:00,
2013-06-23 23:12:00,66.0,-99.9,-100.00,North,-999,-999.0,-999.0,-999,0.01,,,0.49,,2013-06-24 03:12:00,
2013-06-23 23:43:00,65.0,-99.9,-100.00,North,-999,-999.0,-999.0,-999,0.00,,,0.49,,2013-06-24 03:43:00,
2013-06-23 23:53:00,65.0,-99.9,-100.00,North,-999,-999.0,-999.0,-999,0.00,,,0.49,,2013-06-24 03:53:00,